Regional Weather Roundup
Issued by NWS

Home | Current Version | Previous Version | Graphics & Text | Print | Product List | Glossary On
Versions: 1 2 3 4 5 6 7 8 9 10 11 12 13 14 15 16 17 18 19 20 21 22 23 24 25 26 27 28 29 30 31 32 33 34 35 36 37 38 39 40 41 42 43 44 45 46 47 48 49 50
000
ASUS43 KTOP 171108
RWRKS

WEATHER ROUNDUP FOR KANSAS
NATIONAL WEATHER SERVICE GOODLAND KS
600 AM CDT THU APR 17 2014

NOTE:  "FAIR" INDICATES FEW OR NO CLOUDS BELOW 12,000 FEET WITH NO
SIGNIFICANT WEATHER AND/OR OBSTRUCTIONS TO VISIBILITY.

KSZ001>006-013>018-027>032-041>047-171200-
NORTHWEST KANSAS

CITY           SKY/WX    TMP DP  RH WIND       PRES   REMARKS
GOODLAND       CLOUDY    31  29  92 E7        30.18S
HAYS           CLOUDY    34  25  69 NE13      30.23R WCI  25
HILL CITY      CLOUDY    33  25  72 NE8       30.24R
RUSSELL        CLOUDY    34  26  72 N10       30.22R WCI  26
$$

KSZ061>065-074>080-084>089-171200-
SOUTHWEST KANSAS

CITY           SKY/WX    TMP DP  RH WIND       PRES   REMARKS
DODGE CITY     CLOUDY    36  31  82 NE15      30.18R WCI  27
ELKHART          N/A     43  31  63 NE14        N/A
GARDEN CITY    LGT RAIN  37  33  85 NE13      30.17R WCI  29
GREAT BEND     CLOUDY    36  25  64 N14       30.22R WCI  27
LIBERAL        CLOUDY    45  30  57 NE15      30.15R
PRATT          CLOUDY    36  30  80 NE15G22   30.20R WCI  26
$$

KSZ066>073-081>083-090>101-171200-
SOUTHEAST KANSAS

CITY           SKY/WX    TMP DP  RH WIND       PRES   REMARKS
CHANUTE        CLOUDY    41  32  70 N12       30.17R
COFFEYVILLE    CLOUDY    45  37  73 N8        30.17R
HUTCHINSON     CLOUDY    38  27  64 N15G24    30.20R WCI  29
MEDICINE LODGE   N/A     49  30  48 NE16      30.17R
NEWTON         CLOUDY    36  25  64 N16       30.21R WCI  26
PARSONS        CLOUDY    45  35  68 N9        30.17R
WICHITA INTL   CLOUDY    41  29  62 N16G24    30.18R
WICHITA JABRA  CLOUDY    39  30  70 N12       30.17R WCI  32
WICHITA MCCONL CLOUDY    40  32  73 NE17      30.18R WCI  31
WINFIELD       CLOUDY    43  32  65 NE16G23   30.17R
$$

KSZ007>012-019>026-033>040-048>060-102>105-171200-
NORTHEAST KANSAS

CITY           SKY/WX    TMP DP  RH WIND       PRES   REMARKS
CONCORDIA      CLOUDY    34  26  72 N12       30.24R WCI  25
EMPORIA        CLOUDY    38  29  70 N13       30.18S WCI  30
LAWRENCE       CLOUDY    38  30  73 N14       30.21R WCI  30
MANHATTAN      CLOUDY    36  27  69 N6        30.24R
OLATHE IND     CLOUDY    37  30  75 NW12      30.20R WCI  29
OLATHE EXE     CLOUDY    38  30  73 N10       30.18R WCI  31
SALINA         CLOUDY    37  26  64 N16       30.24R WCI  28
TOPEKA BILLARD CLOUDY    38  29  70 NW13      30.23R WCI  30
TOPEKA FORBES  CLOUDY    37  28  70 N14       30.21R WCI  28
$$



USA.gov is the U.S. government's official web portal to all federal, state and local government web resources and services.